CW6242 Weather Reports


time (UTC)temp
C
wind
direction
speed
KPH
gust
KPH
rain 1hr
cm
rain 24hr
cm
rain mn
cm
humidity
%
barometer
mb
20260508050013 17 0.0 4.8 0.00 0.00 0.00 76 1009.7
20260508045015 17 135 1.6 3.2 0.00 0.00 0.00 76 1009.6
20260508044015 17 0.0 3.2 0.00 0.00 0.00 76 1009.5
20260508043035 17 135 3.2 6.4 0.00 0.00 0.00 76 1009.4
20260508042015 17 135 1.6 8.0 0.00 0.00 0.00 76 1009.3
20260508041015 17 113 3.2 6.4 0.00 0.00 0.00 76 1009.3
20260508040015 17 113 3.2 6.4 0.00 0.00 0.00 75 1009.3
20260508035015 17 113 4.8 12.9 0.00 0.00 0.00 76 1009.0
20260508034015 17 68 4.8 16.1 0.00 0.00 0.00 76 1008.9
20260508033015 17 0 4.8 12.9 0.00 0.00 0.00 75 1008.8
20260508032055 17 0 3.2 6.4 0.00 0.00 0.00 73 1008.8
20260508031015 17 23 3.2 8.0 0.00 0.00 0.00 72 1008.7
20260508030015 18 315 3.2 6.4 0.00 0.00 0.00 68 1008.6
20260508025015 18 225 1.6 4.8 0.00 0.00 0.00 66 1008.6
20260508024016 18 0.0 3.2 0.00 0.00 0.00 66 1008.5
20260508023015 18 248 3.2 4.8 0.00 0.00 0.00 66 1008.2
20260508022035 18 0.0 3.2 0.00 0.00 0.00 67 1008.3
20260508021015 18 225 1.6 6.4 0.00 0.00 0.00 67 1008.3
20260508020015 18 248 3.2 8.0 0.00 0.00 0.00 68 1008.3
20260508015015 18 0.0 0.0 0.00 0.00 0.00 68 1008.3
20260508014035 18 0.0 3.2 0.00 0.00 0.00 67 1008.4
20260508013015 18 0.0 3.2 0.00 0.00 0.00 67 1008.3
20260508012015 18 0.0 3.2 0.00 0.00 0.00 67 1008.2
20260508011017 18 203 1.6 3.2 0.00 0.00 0.00 67 1008.1
20260508010017 18 180 3.2 8.0 0.00 0.00 0.00 67 1008.0
20260508005017 18 203 6.4 14.5 0.00 0.00 0.00 68 1007.9
20260508004036 18 203 8.0 16.1 0.00 0.00 0.00 67 1007.9
20260508003016 18 225 11.3 19.3 0.00 0.00 0.00 67 1008.2
20260508002036 18 225 9.7 17.7 0.00 0.00 0.00 67 1008.4
20260508001016 18 225 8.0 19.3 0.00 0.00 0.00 67 1008.6
20260508000036 18 225 9.7 20.9 0.00 0.00 0.00 66 1008.6
20260507235016 18 225 8.0 17.7 0.00 0.00 0.00 66 1008.6
20260507234016 18 225 8.0 20.9 0.00 0.00 0.00 66 1008.9
20260507233016 18 248 11.3 27.4 0.00 0.00 0.00 66 1009.1
20260507232006 18 248 8.0 14.5 0.00 0.00 0.00 68 1009.1
20260507231006 17 180 4.8 11.3 0.00 0.00 0.00 70 1009.3
20260507230008 17 225 8.0 24.1 0.00 0.00 0.00 70 1009.5
20260507225008 17 248 12.9 27.4 0.00 0.00 0.00 71 1009.9
20260507224011 17 248 9.7 20.9 0.00 0.00 0.00 71 1010.0
20260507223007 17 225 11.3 25.7 0.00 0.00 0.00 68 1010.3
20260507222028 18 225 8.0 16.1 0.00 0.00 0.00 66 1010.2
20260507221008 18 225 6.4 14.5 0.00 0.00 0.00 63 1010.3
20260507220007 18 225 6.4 11.3 0.00 0.00 0.00 63 1009.6
20260507215007 18 203 4.8 8.0 0.00 0.00 0.00 64 1009.4
20260507214007 18 180 4.8 9.7 0.00 0.00 0.00 64 1009.2
20260507213007 18 203 6.4 12.9 0.00 0.00 0.00 64 1009.1
20260507212007 18 203 4.8 8.0 0.00 0.00 0.00 64 1009.1
20260507211007 18 225 6.4 9.7 0.00 0.00 0.00 64 1009.1
20260507210007 18 225 4.8 8.0 0.00 0.00 0.00 64 1009.1
20260507205009 18 248 6.4 14.5 0.00 0.00 0.00 64 1009.2
20260507204029 18 225 4.8 11.3 0.00 0.00 0.00 64 1009.3
20260507203007 18 203 6.4 11.3 0.00 0.00 0.00 64 1009.6
20260507202008 18 158 4.8 9.7 0.00 0.00 0.00 65 1009.4
20260507201008 18 135 3.2 6.4 0.00 0.00 0.00 64 1009.1
20260507200008 18 135 4.8 11.3 0.00 0.00 0.00 66 1009.0
20260507195008 18 135 1.6 8.0 0.00 0.00 0.00 66 1009.0
20260507194008 18 0.0 0.0 0.00 0.00 0.00 66 1008.9
20260507193047 18 0.0 0.0 0.00 0.00 0.00 65 1008.7
20260507192007 18 0.0 0.0 0.00 0.00 0.00 64 1008.5
20260507191007 18 0.0 0.0 0.00 0.00 0.00 64 1008.5
20260507190030 18 0.0 0.0 0.00 0.00 0.00 64 1008.4
20260507185009 18 0.0 0.0 0.00 0.00 0.00 63 1008.3
20260507184009 18 0.0 0.0 0.00 0.00 0.00 64 1008.0
20260507183009 18 135 4.8 12.9 0.00 0.00 0.00 66 1008.1
20260507182009 18 135 1.6 14.5 0.00 0.00 0.00 65 1008.2
20260507181009 19 0.0 4.8 0.00 0.00 0.00 62 1008.0
20260507180009 19 0.0 11.3 0.00 0.00 0.00 55 1007.9
20260507175009 20 0.0 1.6 0.00 0.00 0.00 49 1007.8
20260507174009 20 0.0 1.6 0.00 0.00 0.00 47 1007.7
20260507173009 20 0.0 0.0 0.00 0.00 0.00 48 1007.7
20260507172009 20 0.0 0.0 0.00 0.00 0.00 46 1007.8
20260507171009 20 0.0 0.0 0.00 0.00 0.00 46 1007.8
20260507170049 20 0.0 0.0 0.00 0.00 0.00 46 1007.9
20260507165009 20 0.0 0.0 0.00 0.00 0.00 46 1007.9
20260507164009 21 0.0 1.6 0.00 0.00 0.00 51 1008.1
20260507163009 21 0.0 0.0 0.00 0.00 0.00 51 1008.0
20260507162009 21 0.0 0.0 0.00 0.00 0.00 49 1008.0
20260507161009 21 0.0 0.0 0.00 0.00 0.00 51 1007.8
20260507160009 21 0.0 0.0 0.00 0.00 0.00 54 1007.7
20260507155009 21 0.0 0.0 0.00 0.00 0.00 56 1007.9
20260507154010 21 0.0 3.2 0.00 0.00 0.00 56 1008.1
20260507153009 21 0.0 3.2 0.00 0.00 0.00 56 1008.0
20260507152011 21 0.0 1.6 0.00 0.00 0.00 58 1007.8
20260507151032 22 0.0 0.0 0.00 0.00 0.00 55 1007.8
20260507150031 22 0.0 1.6 0.00 0.00 0.00 48 1007.9
20260507145011 22 0.0 1.6 0.00 0.00 0.00 45 1008.1
20260507144051 23 0.0 6.4 0.00 0.00 0.00 47 1007.8
20260507143011 22 270 1.6 11.3 0.00 0.00 0.00 47 1007.5
20260507142011 22 0.0 0.0 0.00 0.00 0.00 49 1007.7
20260507141012 22 0.0 4.8 0.00 0.00 0.00 51 1007.7
20260507140011 22 0.0 8.0 0.00 0.00 0.00 54 1007.7
20260507135011 22 0.0 0.0 0.00 0.00 0.00 57 1008.1
20260507134031 22 0.0 0.0 0.00 0.00 0.00 58 1008.0
20260507133051 22 0.0 0.0 0.00 0.00 0.00 57 1008.1
20260507132011 22 0.0 0.0 0.00 0.00 0.00 58 1008.5
20260507131031 21 0.0 0.0 0.00 0.00 0.00 57 1008.2
20260507130011 21 0.0 0.0 0.00 0.00 0.00 56 1008.3
20260507125011 22 0.0 0.0 0.00 0.00 0.00 54 1008.5
20260507124031 22 0.0 0.0 0.00 0.00 0.00 58 1008.7
20260507123010 22 158 1.6 16.1 0.00 0.00 0.00 56 1008.7
20260507122010 22 135 3.2 14.5 0.00 0.00 0.00 52 1008.8
20260507121011 22 158 1.6 19.3 0.00 0.00 0.00 50 1008.7
20260507120031 22 0 4.8 19.3 0.00 0.00 0.00 47 1008.4
20260507115011 22 0 4.8 19.3 0.00 0.00 0.00 46 1008.4
20260507114012 22 180 6.4 25.7 0.00 0.00 0.00 49 1008.6
20260507113013 22 158 9.7 27.4 0.00 0.00 0.00 46 1008.6
20260507112012 23 0 8.0 40.2 0.00 0.00 0.00 39 1008.5
20260507111013 22 0 8.0 25.7 0.00 0.00 0.00 39 1008.9
20260507110012 22 135 14.5 40.2 0.00 0.00 0.00 39 1008.9
20260507105012 22 0 17.7 40.2 0.00 0.00 0.00 37 1009.2
20260507104013 22 0 17.7 40.2 0.00 0.00 0.00 36 1009.1
20260507103032 22 0 19.3 37.0 0.00 0.00 0.00 35 1009.1
20260507102032 22 0 19.3 43.5 0.00 0.00 0.00 33 1008.9
20260507101013 22 0 19.3 43.5 0.00 0.00 0.00 33 1008.9
20260507100012 22 0 24.1 51.5 0.00 0.00 0.00 32 1008.7
20260507095012 22 0 19.3 41.8 0.00 0.00 0.00 32 1008.9
20260507094013 22 0 17.7 41.8 0.00 0.00 0.00 31 1009.0
20260507093012 22 0 14.5 49.9 0.00 0.00 0.00 35 1009.2
20260507092012 21 158 4.8 29.0 0.00 0.00 0.00 53 1009.8
20260507091012 21 45 4.8 16.1 0.00 0.00 0.00 57 1009.6
20260507090012 21 0.0 8.0 0.00 0.00 0.00 54 1009.7
20260507085032 20 315 4.8 14.5 0.00 0.00 0.00 65 1009.9
20260507084012 20 0.0 6.4 0.00 0.00 0.00 71 1009.8
20260507083012 20 270 1.6 9.7 0.00 0.00 0.00 72 1009.8
20260507082032 20 270 3.2 16.1 0.00 0.00 0.00 69 1009.9
20260507081012 20 0.0 0.0 0.00 0.00 0.00 67 1009.9
20260507080014 21 180 3.2 12.9 0.00 0.00 0.00 65 1009.9
20260507075014 21 180 9.7 32.2 0.00 0.00 0.00 47 1009.8
20260507074014 21 0 11.3 32.2 0.00 0.00 0.00 34 1009.6
20260507073034 21 0 14.5 37.0 0.00 0.00 0.00 31 1009.2
20260507072014 21 0 19.3 43.5 0.00 0.00 0.00 31 1009.3
20260507071014 20 0 22.5 59.5 0.00 0.00 0.00 30 1009.2
20260507070014 21 0 17.7 43.5 0.00 0.00 0.00 30 1009.3
20260507065014 21 0 19.3 41.8 0.00 0.00 0.00 29 1009.3
20260507064014 20 0 17.7 40.2 0.00 0.00 0.00 29 1009.6
20260507063034 20 0 16.1 30.6 0.00 0.00 0.00 31 1009.7
20260507062014 20 0 14.5 29.0 0.00 0.00 0.00 31 1009.9
20260507061014 20 0 11.3 27.4 0.00 0.00 0.00 31 1010.0
20260507060014 20 0 14.5 30.6 0.00 0.00 0.00 34 1009.9
20260507055014 20 0 16.1 37.0 0.00 0.00 0.00 30 1009.8
20260507054034 20 0 16.1 35.4 0.00 0.00 0.00 30 1009.7
20260507053014 20 0 22.5 45.1 0.00 0.00 0.00 30 1009.7
20260507052014 19 0 25.7 45.1 0.00 0.00 0.00 30 1009.4
20260507051013 18 0 19.3 37.0 0.00 0.00 0.00 31 1009.6